Weather History for LFPG - June, 2014

Change the Weather History Date:

Monday, June 16, 2014

  Actual Average Record
Temperature  
Mean Temperature 58 °F -  
Max Temperature 66 °F 73 °F 84 °F (2002)
Min Temperature 50 °F 55 °F 50 °F (2014)
Degree Days  
Heating Degree Days 7    
Growing Degree Days 8 (Base 50)    
Moisture  
Dew Point 49 °F    
Average Humidity 69    
Maximum Humidity 94    
Minimum Humidity 40    
Precipitation  
Precipitation 0.00 in - - ()
Sea Level Pressure  
Sea Level Pressure 30.21 in    
Wind  
Wind Speed 13 mph ()    
Max Wind Speed 18 mph    
Max Gust Speed 33 mph    
Visibility 9.2 miles    
Events      
Averages and records for this station are not official NWS values.
T = Trace of Precipitation, MM = Missing Value Source: Averaged Metar Reports

Daily Weather History Graph

Daily Weather History Graph

Search for Another Location

Airport or City:

Trip Planner

Search our weather history database for the weather conditions in past years. The results will help you decide how hot, cold, wet, or windy it might be!

Date:

Astronomy

Jun. 16, 2014 Rise Set
Actual Time 5:44 AM CEST 9:56 PM CEST
Civil Twilight 5:02 AM CEST 10:39 PM CEST
Nautical Twilight 4:01 AM CEST 11:40 PM CEST
Astronomical Twilight 2:22 AM CEST 1:18 AM CEST
Moon No Moon Rise 9:47 AM CEST (6/16)
Length of Visible Light 17h 36m
Length of Day
16h 11m
Waning Gibbous, 85% of the Moon is Illuminated
Jun 16
Waning Gibbous
Jun 19
Last Quarter
Jun 27
New
Jul 5
First Quarter
Jul 12
Full

Hourly Weather History & Observations

Time (CEST) Temp. Dew Point Humidity Pressure Visibility Wind Dir Wind Speed Gust Speed Precip Events Conditions
12:00 AM 56 °F 48 °F 67% 30.24 in 12 mi North 15.0 mph - -  
12:00 AM 55.4 °F 48.2 °F 77% 30.24 in - North 15.0 mph - N/A   Clear
12:30 AM 55.4 °F 48.2 °F 77% 30.24 in - North 15.0 mph - N/A   Clear
1:00 AM 54 °F 47 °F 70% 30.25 in 12 mi North 13.8 mph - -  
1:00 AM 53.6 °F 48.2 °F 82% 30.24 in - North 13.8 mph - N/A   Clear
1:30 AM 53.6 °F 46.4 °F 77% 30.24 in - North 12.7 mph - N/A   Clear
2:00 AM 53 °F 47 °F 74% 30.25 in 12 mi North 11.5 mph - -  
2:00 AM 51.8 °F 46.4 °F 82% 30.24 in - North 11.5 mph - N/A   Clear
2:30 AM 51.8 °F 46.4 °F 82% 30.24 in - North 11.5 mph - N/A   Clear
3:00 AM 51 °F 46 °F 79% 30.24 in 12 mi North 11.5 mph - -  
3:00 AM 51.8 °F 46.4 °F 82% 30.21 in - North 11.5 mph - N/A   Clear
3:30 AM 50.0 °F 46.4 °F 87% 30.21 in - North 11.5 mph - N/A   Clear
4:00 AM 50 °F 47 °F 86% 30.23 in 12 mi North 11.5 mph - -  
4:00 AM 50.0 °F 46.4 °F 87% 30.21 in - North 11.5 mph - N/A   Clear
4:30 AM 50.0 °F 46.4 °F 87% 30.21 in - North 13.8 mph - N/A   Clear
5:00 AM 50 °F 47 °F 88% 30.23 in 12 mi North 13.8 mph - -  
5:00 AM 50.0 °F 48.2 °F 94% 30.21 in - North 13.8 mph - N/A   Clear
5:30 AM 50.0 °F 48.2 °F 94% 30.21 in - North 10.4 mph - N/A   Clear
6:00 AM 51 °F 48 °F 87% 30.23 in 7 mi North 6.9 mph - -   Clear
6:00 AM 50.0 °F 48.2 °F 94% 30.21 in - North 6.9 mph - N/A   Clear
6:30 AM 51.8 °F 48.2 °F 88% 30.21 in - North 10.4 mph - N/A   Clear
7:00 AM 51 °F 48 °F 87% 30.23 in 7 mi North 11.5 mph - -   Clear
7:00 AM 51.8 °F 48.2 °F 88% 30.21 in - North 11.5 mph - N/A   Clear
7:30 AM 51.8 °F 48.2 °F 88% 30.21 in - North 13.8 mph - N/A   Clear
8:00 AM 54 °F 50 °F 81% 30.23 in 11 mi North 12.7 mph - -   Clear
8:00 AM 53.6 °F 50.0 °F 88% 30.21 in - North 12.7 mph - N/A   Clear
8:30 AM 55.4 °F 50.0 °F 82% 30.21 in 6.2 mi North 13.8 mph - N/A   Scattered Clouds
9:00 AM 58 °F 50 °F 67% 30.24 in 12 mi North 16.1 mph - -   Scattered Clouds
9:00 AM 57.2 °F 50.0 °F 77% 30.21 in 6.2 mi North 15.0 mph - N/A   Scattered Clouds
9:30 AM 59.0 °F 50.0 °F 72% 30.24 in 6.2 mi NNE 16.1 mph - N/A   Mostly Cloudy
10:00 AM 60 °F 49 °F 59% 30.24 in 12 mi NNE 16.1 mph - -   Scattered Clouds
10:00 AM 59.0 °F 48.2 °F 67% 30.21 in 6.2 mi NNE 16.1 mph - N/A   Mostly Cloudy
10:30 AM 60.8 °F 50.0 °F 68% 30.21 in 6.2 mi North 13.8 mph - N/A   Mostly Cloudy
11:00 AM 62 °F 50 °F 55% 30.22 in 16 mi North 16.1 mph - -   Scattered Clouds
11:00 AM 62.6 °F 50.0 °F 63% 30.21 in 6.2 mi NNE 16.1 mph - N/A   Mostly Cloudy
11:30 AM 64.4 °F 50.0 °F 59% 30.21 in 6.2 mi NNE 13.8 mph - N/A   Mostly Cloudy
12:00 PM 65 °F 49 °F 47% 30.23 in 16 mi North 15.0 mph - -   Scattered Clouds
12:00 PM 64.4 °F 50.0 °F 59% 30.21 in 6.2 mi North 15.0 mph - N/A   Mostly Cloudy
12:30 PM 66.2 °F 50.0 °F 56% 30.21 in 6.2 mi North 13.8 mph - N/A   Mostly Cloudy
1:00 PM 65 °F 50 °F 48% 30.22 in 16 mi North 13.8 mph - -   Scattered Clouds
1:00 PM 66.2 °F 50.0 °F 56% 30.21 in 6.2 mi North 15.0 mph - N/A   Mostly Cloudy
1:30 PM 66.2 °F 50.0 °F 56% 30.21 in 6.2 mi North 15.0 mph - N/A   Mostly Cloudy
2:00 PM 65 °F 49 °F 46% 30.22 in 16 mi North 16.1 mph - -   Scattered Clouds
2:00 PM 64.4 °F 48.2 °F 56% 30.21 in 6.2 mi North 16.1 mph - N/A   Mostly Cloudy
2:30 PM 64.4 °F 48.2 °F 56% 30.21 in 6.2 mi North 12.7 mph - N/A   Mostly Cloudy
3:00 PM 66 °F 48 °F 42% 30.21 in 12 mi North 15.0 mph - -   Scattered Clouds
3:00 PM 66.2 °F 48.2 °F 52% 30.21 in 6.2 mi North 15.0 mph 27.6 mph N/A   Mostly Cloudy
3:30 PM 66.2 °F 48.2 °F 52% 30.18 in 6.2 mi North 17.3 mph 29.9 mph N/A   Mostly Cloudy
4:00 PM 66 °F 47 °F 40% 30.20 in 12 mi North 17.3 mph - -   Scattered Clouds
4:00 PM 66.2 °F 46.4 °F 49% 30.18 in 6.2 mi North 17.3 mph 28.8 mph N/A   Mostly Cloudy
4:30 PM 66.2 °F 48.2 °F 52% 30.18 in 6.2 mi North 16.1 mph 27.6 mph N/A   Mostly Cloudy
5:00 PM 66 °F 48 °F 41% 30.20 in 11 mi North 18.4 mph - -   Partly Cloudy
5:00 PM 66.2 °F 48.2 °F 52% 30.18 in 6.2 mi North 18.4 mph - N/A   Mostly Cloudy
5:30 PM 64.4 °F 48.2 °F 56% 30.18 in 6.2 mi NNE 17.3 mph 33.4 mph N/A   Mostly Cloudy
6:00 PM 65 °F 49 °F 45% 30.19 in 12 mi NNE 15.0 mph - -   Mostly Cloudy
6:00 PM 64.4 °F 48.2 °F 56% 30.18 in 6.2 mi NNE 16.1 mph - N/A   Mostly Cloudy
6:30 PM 62.6 °F 50.0 °F 63% 30.18 in 6.2 mi North 12.7 mph 25.3 mph N/A   Mostly Cloudy
7:00 PM 63 °F 50 °F 53% 30.20 in 16 mi NNE 12.7 mph - -   Mostly Cloudy
7:00 PM 62.6 °F 50.0 °F 63% 30.18 in 6.2 mi NNE 12.7 mph - N/A   Mostly Cloudy
7:30 PM 62.6 °F 51.8 °F 68% 30.18 in 6.2 mi North 18.4 mph - N/A   Mostly Cloudy
8:00 PM 63 °F 53 °F 62% 30.20 in 16 mi North 13.8 mph - -   Mostly Cloudy
8:00 PM 62.6 °F 53.6 °F 72% 30.18 in 6.2 mi North 15.0 mph - N/A   Mostly Cloudy
8:30 PM 62.6 °F 51.8 °F 68% 30.18 in 6.2 mi North 16.1 mph - N/A   Scattered Clouds
9:00 PM 61 °F 53 °F 66% 30.20 in 16 mi North 13.8 mph - -   Mostly Cloudy
9:00 PM 60.8 °F 51.8 °F 72% 30.18 in 6.2 mi North 13.8 mph - N/A   Mostly Cloudy
9:30 PM 60.8 °F 51.8 °F 72% 30.18 in 6.2 mi North 11.5 mph - N/A   Scattered Clouds
10:00 PM 59 °F 51 °F 69% 30.21 in 16 mi North 13.8 mph - -   Partly Cloudy
10:00 PM 59.0 °F 51.8 °F 77% 30.18 in 6.2 mi North 12.7 mph - N/A   Scattered Clouds
10:30 PM 59.0 °F 51.8 °F 77% 30.21 in 6.2 mi North 11.5 mph - N/A   Mostly Cloudy
11:00 PM 58 °F 51 °F 70% 30.22 in 16 mi North 11.5 mph - -   Partly Cloudy
11:00 PM 59.0 °F 51.8 °F 77% 30.21 in 6.2 mi North 11.5 mph - N/A   Scattered Clouds
11:30 PM 57.2 °F 51.8 °F 82% 30.21 in 6.2 mi North 12.7 mph - N/A   Scattered Clouds